Pian Rosa, Italy

10:46 AM CET on November 20, 2017 (GMT +0100)
Pian Rosa

Weather History for LIMH - July, 2013

Change the Weather History Date:

Sunday, July 28, 2013

  Actual Average Record
Temperature  
Mean Temperature 42 °F -  
Max Temperature 43 °F 38 °F 50 °F (2005)
Min Temperature 41 °F 29 °F 26 °F (2011)
Degree Days  
Heating Degree Days 23    
Moisture  
Dew Point 39 °F    
Average Humidity 87    
Maximum Humidity 100    
Minimum Humidity 67    
Precipitation  
Precipitation 0.00 in - - ()
Sea Level Pressure  
Sea Level Pressure 30.51 in    
Wind  
Wind Speed 29 mph ()    
Max Wind Speed 39 mph    
Max Gust Speed -    
Visibility 2.3 miles    
Events Fog    
Averages and records for this station are not official NWS values.
T = Trace of Precipitation, MM = Missing Value Source: Averaged Metar Reports

Daily Weather History Graph

Daily Weather History Graph

Search for Another Location

Airport or City:

Trip Planner

Search our weather history database for the weather conditions in past years. The results will help you decide how hot, cold, wet, or windy it might be!

Date:

Astronomy

Jul. 28, 2013 Rise Set
Actual Time 6:07 AM CEST 9:03 PM CEST
Civil Twilight 5:32 AM CEST 9:38 PM CEST
Nautical Twilight 4:47 AM CEST 10:23 PM CEST
Astronomical Twilight 3:53 AM CEST 11:16 PM CEST
Moon 11:49 PM CEST (7/28) 12:57 PM CEST (7/28)
Length of Visible Light 16h 06m
Length of Day
14h 56m
Waning Gibbous, 63% of the Moon is Illuminated
Jul 28
Waning Gibbous
Jul 29
Last Quarter
Aug 6
New
Aug 14
First Quarter
Aug 21
Full

Hourly Weather History & Observations

Time (CEST) Temp. Windchill Dew Point Humidity Pressure Visibility Wind Dir Wind Speed Gust Speed Precip Events Conditions
12:55 AM 42.8 °F 32.1 °F 41.0 °F 93% 30.54 in 6.2 mi South 31.1 mph - N/A   Scattered Clouds
1:55 AM 42.8 °F 32.9 °F 35.6 °F 76% 30.54 in 6.2 mi South 26.5 mph - N/A   Mostly Cloudy
2:00 AM 43 °F - 36 °F 67%  in 6 mi South 26.5 mph - -   Mostly Cloudy
2:55 AM 42.8 °F 32.5 °F 42.8 °F 100% 30.54 in 0.5 mi South 28.8 mph - N/A Fog Fog
3:55 AM 42.8 °F 31.6 °F 41.0 °F 93% 30.54 in 0.5 mi South 34.5 mph - N/A Fog Fog
4:55 AM 42.8 °F 31.6 °F 39.2 °F 87% 30.51 in 0.5 mi South 34.5 mph - N/A Fog Fog
5:00 AM 42 °F - 40 °F 88%  in 0 mi South 34.5 mph - - Fog Heavy Fog
5:55 AM 41.0 °F 28.5 °F 39.2 °F 93% 30.51 in 0.5 mi South 39.1 mph - N/A Fog Fog
6:55 AM 41.0 °F 28.5 °F 37.4 °F 87% 30.51 in 4.3 mi South 39.1 mph - N/A   Scattered Clouds
7:55 AM 41.0 °F 29.3 °F 37.4 °F 87% 30.51 in 4.3 mi South 33.4 mph - N/A   Scattered Clouds
8:00 AM 41 °F - 37 °F 82%  in 4 mi South 33.4 mph - -   Mist
8:55 AM 41.0 °F 29.5 °F 37.4 °F 87% 30.51 in 6.2 mi South 32.2 mph - N/A   Scattered Clouds
9:55 AM 41.0 °F 29.8 °F 37.4 °F 87% 30.51 in 6.2 mi South 29.9 mph - N/A   Scattered Clouds
10:55 AM 41.0 °F 29.1 °F 37.4 °F 87% 30.51 in 6.2 mi South 34.5 mph - N/A   Scattered Clouds
11:00 AM 42 °F - 37 °F 75%  in 6 mi South 34.5 mph - -   Scattered Clouds
11:55 AM 42.8 °F 31.1 °F 35.6 °F 76% 30.51 in 6.2 mi South 38.0 mph - N/A   Scattered Clouds
12:55 PM 42.8 °F 32.1 °F 42.8 °F 100% 30.51 in 0.1 mi South 31.1 mph - N/A Fog Fog
1:55 PM 42.8 °F 31.4 °F 41.0 °F 93% 30.51 in 0.2 mi South 35.7 mph - N/A Fog Fog
2:00 PM 42 °F - 41 °F 94%  in 0 mi South 35.7 mph - - Fog Heavy Fog
2:55 PM 42.8 °F 32.7 °F 41.0 °F 93% 30.51 in 0.2 mi South 27.6 mph - N/A Fog Fog
3:55 PM 42.8 °F 33.3 °F 42.8 °F 100% 30.51 in 0.1 mi South 24.2 mph - N/A Fog Fog
4:55 PM 42.8 °F 32.3 °F 39.2 °F 87% 30.51 in 0.4 mi South 29.9 mph - N/A Fog Fog
5:00 PM 42 °F - 39 °F 86%  in 0 mi South 29.9 mph - - Fog Heavy Fog
5:55 PM 42.8 °F 32.3 °F 41.0 °F 93% 30.51 in 0.4 mi South 29.9 mph - N/A Fog Fog
6:55 PM 42.8 °F 31.4 °F 37.4 °F 81% 30.51 in 0.4 mi South 35.7 mph - N/A Fog Fog
7:55 PM 41.0 °F 28.6 °F 37.4 °F 87% 30.48 in 0.5 mi South 38.0 mph - N/A Fog Fog
8:00 PM 41 °F - 38 °F 84%  in 0 mi South 38.0 mph - - Fog Heavy Fog
8:55 PM 41.0 °F 29.7 °F 37.4 °F 87% 30.48 in 3.7 mi SSE 31.1 mph - N/A   Scattered Clouds
9:55 PM 41.0 °F 29.1 °F 39.2 °F 93% 30.51 in 0.5 mi South 34.5 mph - N/A Fog Fog
10:55 PM 41.0 °F 28.6 °F 35.6 °F 81% 30.51 in 0.5 mi SSE 38.0 mph - N/A Fog Fog
11:55 PM 41.0 °F 28.8 °F 35.6 °F 81% 30.48 in 0.5 mi South 36.8 mph - N/A Fog Fog